KD9JOU-13 Weather Reports


time (UTC)temp
C
wind
direction
speed
KPH
gust
KPH
rain 1hr
cm
rain 24hr
cm
rain mn
cm
humidity
%
barometer
mb
20260906131330 24 314 3.2 4.8 0.00 0.00 0.00 91 1015.3
20260906130831 24 346 1.6 3.2 0.00 0.00 0.00 91 1015.3
20260906130331 24 360 0.0 0.0 0.00 0.00 0.00 91 1015.5
20260906125831 24 321 3.2 3.2 0.00 0.00 0.00 91 1015.5
20260906125331 24 320 0.0 3.2 0.00 0.00 0.00 92 1015.4
20260906124830 23 46 1.6 3.2 0.00 0.00 0.00 92 1015.5
20260906124331 23 325 0.0 3.2 0.00 0.00 0.00 92 1015.5
20260906123830 23 360 0.0 0.0 0.00 0.00 0.00 92 1015.5
20260906123331 23 320 0.0 0.0 0.00 0.00 0.00 93 1015.4
20260906122831 23 313 3.2 3.2 0.00 0.00 0.00 93 1015.4
20260906122331 23 360 0.0 0.0 0.00 0.00 0.00 93 1015.3
20260906121831 23 360 0.0 0.0 0.00 0.00 0.00 93 1015.2
20260906120908 23 47 1.6 3.2 0.00 0.00 0.00 94 1015.1
20260906120331 23 360 0.0 0.0 0.00 0.00 0.00 94 1015.1
20260906115831 23 360 0.0 0.0 0.00 0.00 0.00 93 1015.1
20260906115331 23 305 1.6 3.2 0.00 0.00 0.00 93 1015.1
20260906114831 23 360 0.0 0.0 0.00 0.00 0.00 93 1015.1
20260906114331 23 360 0.0 0.0 0.00 0.00 0.00 93 1015.0
20260906113831 23 360 0.0 0.0 0.00 0.00 0.00 93 1014.9
20260906113331 23 360 0.0 0.0 0.00 0.00 0.00 93 1014.8
20260906112831 23 360 0.0 0.0 0.00 0.00 0.00 93 1014.8
20260906112331 23 360 0.0 0.0 0.00 0.00 0.00 93 1014.7
20260906111831 24 360 0.0 0.0 0.00 0.00 0.00 93 1014.7
20260906111331 24 360 0.0 0.0 0.00 0.00 0.00 93 1014.6
20260906110831 24 360 0.0 0.0 0.00 0.00 0.00 93 1014.6
20260906110331 24 360 0.0 0.0 0.00 0.00 0.00 94 1014.5
20260906105831 24 360 0.0 0.0 0.00 0.00 0.00 94 1014.5
20260906105332 24 360 0.0 0.0 0.00 0.00 0.00 94 1014.4
20260906104831 24 360 0.0 0.0 0.00 0.00 0.00 94 1014.3
20260906104331 24 360 0.0 0.0 0.00 0.00 0.00 94 1014.3
20260906103831 24 360 0.0 0.0 0.00 0.00 0.00 95 1014.2
20260906103331 24 360 0.0 0.0 0.00 0.00 0.00 95 1013.9
20260906102831 24 232 3.2 3.2 0.00 0.00 0.00 95 1013.9
20260906102331 24 360 0.0 0.0 0.00 0.00 0.00 95 1013.9
20260906101831 24 360 0.0 0.0 0.00 0.00 0.00 96 1013.9
20260906101330 24 360 0.0 0.0 0.00 0.00 0.00 96 1013.8
20260906100831 24 360 0.0 0.0 0.00 0.00 0.00 96 1013.8
20260906100332 24 360 0.0 0.0 0.00 0.00 0.00 96 1013.7
20260906095832 24 360 0.0 0.0 0.00 0.00 0.00 96 1013.6
20260906095331 24 360 0.0 0.0 0.00 0.00 0.00 96 1013.6
20260906094831 24 360 0.0 0.0 0.00 0.00 0.00 96 1013.6
20260906094331 24 360 0.0 0.0 0.00 0.00 0.00 97 1013.6
20260906093831 24 360 0.0 0.0 0.00 0.00 0.00 97 1013.6
20260906093331 24 360 0.0 0.0 0.00 0.00 0.00 97 1013.5
20260906092831 24 360 0.0 0.0 0.00 0.00 0.00 97 1013.6
20260906092331 24 360 0.0 0.0 0.00 0.00 0.00 97 1013.5
20260906091831 24 360 0.0 0.0 0.00 0.00 0.00 97 1013.4
20260906091331 24 360 0.0 0.0 0.00 0.00 0.00 97 1013.4
20260906090831 24 360 0.0 0.0 0.00 0.00 0.00 97 1013.3
20260906090331 24 360 0.0 0.0 0.00 0.00 0.00 97 1013.3
20260906085831 24 360 0.0 0.0 0.00 0.00 0.00 97 1013.3
20260906085331 24 360 0.0 0.0 0.00 0.00 0.00 97 1013.3
20260906084831 24 360 0.0 0.0 0.00 0.00 0.00 97 1013.3
20260906084331 24 360 0.0 0.0 0.00 0.00 0.00 97 1013.2
20260906083831 24 360 0.0 0.0 0.00 0.00 0.00 97 1013.1
20260906083331 24 360 0.0 0.0 0.00 0.00 0.00 97 1013.1
20260906082832 24 360 0.0 0.0 0.00 0.00 0.00 97 1013.2
20260906082333 24 95 0.0 0.0 0.00 0.00 0.00 97 1013.2
20260906081831 24 360 0.0 0.0 0.00 0.00 0.00 97 1013.2
20260906081331 24 360 0.0 0.0 0.00 0.00 0.00 97 1013.2
20260906080831 24 90 0.0 0.0 0.00 0.00 0.00 96 1013.2
20260906080331 24 360 0.0 0.0 0.00 0.00 0.00 96 1013.1
20260906075830 24 360 0.0 0.0 0.00 0.00 0.00 96 1013.1
20260906075331 24 360 0.0 0.0 0.00 0.00 0.00 96 1013.1
20260906074830 24 360 0.0 0.0 0.00 0.00 0.00 96 1013.1
20260906074331 24 360 0.0 0.0 0.00 0.00 0.00 96 1013.1
20260906073831 24 360 0.0 0.0 0.00 0.00 0.00 96 1013.1
20260906073331 24 360 0.0 0.0 0.00 0.00 0.00 96 1013.2
20260906072831 24 360 0.0 0.0 0.00 0.00 0.00 96 1013.3
20260906072331 24 360 0.0 0.0 0.00 0.00 0.00 97 1013.2
20260906071831 24 360 0.0 0.0 0.00 0.00 0.00 97 1013.2
20260906071331 23 360 0.0 0.0 0.00 0.00 0.00 97 1013.2
20260906070834 23 360 0.0 0.0 0.00 0.00 0.00 97 1013.2
20260906070331 23 81 0.0 3.2 0.00 0.00 0.00 97 1013.2
20260906065831 23 360 0.0 0.0 0.00 0.00 0.00 97 1013.2
20260906065330 23 360 0.0 0.0 0.00 0.00 0.00 97 1013.2
20260906064831 23 360 0.0 0.0 0.00 0.00 0.00 97 1013.2
20260906064331 23 93 0.0 3.2 0.00 0.00 0.00 97 1013.2
20260906063831 23 360 0.0 0.0 0.00 0.00 0.00 96 1013.3
20260906063331 23 90 0.0 1.6 0.00 0.00 0.00 96 1013.3
20260906062831 23 360 0.0 0.0 0.00 0.00 0.00 96 1013.4
20260906062331 23 360 0.0 0.0 0.00 0.00 0.00 96 1013.3
20260906061831 23 360 0.0 0.0 0.00 0.00 0.00 96 1013.3
20260906061331 23 360 0.0 0.0 0.00 0.00 0.00 96 1013.4
20260906060831 23 360 0.0 0.0 0.00 0.00 0.00 96 1013.4
20260906060330 23 360 0.0 0.0 0.00 0.00 0.00 96 1013.5
20260906055831 23 360 0.0 0.0 0.00 0.00 0.00 96 1013.5
20260906055331 23 360 0.0 0.0 0.00 0.00 0.00 96 1013.5
20260906054831 23 360 0.0 0.0 0.00 0.00 0.00 96 1013.5
20260906054331 23 360 0.0 0.0 0.00 0.00 0.00 96 1013.5
20260906053831 23 360 0.0 0.0 0.00 0.00 0.00 96 1013.5
20260906053331 23 360 0.0 0.0 0.00 0.00 0.00 96 1013.5
20260906052831 23 360 0.0 0.0 0.00 0.00 0.00 96 1013.5
20260906052330 23 360 0.0 0.0 0.00 0.00 0.00 95 1013.5
20260906051831 23 91 0.0 1.6 0.00 0.00 0.00 95 1013.5
20260906051331 23 360 0.0 0.0 0.00 0.00 0.00 95 1013.5
20260906050833 23 360 0.0 0.0 0.00 0.00 0.00 95 1013.4
20260906050331 23 360 0.0 0.0 0.00 0.00 0.00 95 1013.4
20260906045830 23 360 0.0 0.0 0.00 0.00 0.00 95 1013.5
20260906045331 23 360 0.0 0.0 0.00 0.00 0.00 95 1013.5
20260906044831 23 360 0.0 0.0 0.00 0.00 0.00 95 1013.5
20260906044331 23 360 0.0 0.0 0.00 0.00 0.00 95 1013.4
20260906043831 23 92 1.6 3.2 0.00 0.00 0.00 95 1013.4
20260906043331 23 91 1.6 3.2 0.00 0.00 0.00 95 1013.4
20260906042830 23 360 0.0 0.0 0.00 0.00 0.00 95 1013.4
20260906042330 23 360 0.0 0.0 0.00 0.00 0.00 95 1013.4
20260906041830 23 360 0.0 0.0 0.00 0.00 0.00 95 1013.3
20260906041331 23 360 0.0 0.0 0.00 0.00 0.00 95 1013.3
20260906040830 23 87 1.6 3.2 0.00 0.00 0.00 95 1013.3
20260906040332 23 80 3.2 4.8 0.00 0.00 0.00 95 1013.3
20260906035831 23 79 0.0 3.2 0.00 0.00 0.00 95 1013.3
20260906035331 23 54 1.6 3.2 0.00 0.00 0.00 95 1013.3
20260906034831 23 51 0.0 0.0 0.00 0.00 0.00 95 1013.2
20260906034331 23 360 0.0 0.0 0.00 0.00 0.00 95 1013.1
20260906033832 23 360 0.0 0.0 0.00 0.00 0.00 94 1013.1
20260906033331 23 90 0.0 3.2 0.00 0.00 0.00 93 1013.0
20260906032831 24 360 0.0 0.0 0.00 0.00 0.00 94 1013.0
20260906032331 24 360 0.0 0.0 0.00 0.00 0.00 95 1013.0
20260906031831 24 360 0.0 0.0 0.00 0.00 0.00 94 1013.0
20260906031331 24 360 0.0 0.0 0.00 0.00 0.00 93 1013.0
20260906030831 24 360 0.0 0.0 0.00 0.00 0.00 94 1012.9
20260906030331 24 360 0.0 0.0 0.00 0.00 0.00 94 1012.9
20260906025831 24 360 0.0 0.0 0.00 0.00 0.00 94 1013.0
20260906025330 24 360 0.0 0.0 0.00 0.00 0.00 94 1013.0
20260906024831 24 360 0.0 0.0 0.00 0.00 0.00 94 1012.9
20260906024331 24 360 0.0 0.0 0.00 0.00 0.00 92 1012.9
20260906023831 24 360 0.0 0.0 0.00 0.00 0.00 94 1012.9
20260906023331 24 360 0.0 0.0 0.00 0.00 0.00 94 1012.8
20260906022831 23 360 0.0 0.0 0.00 0.00 0.00 94 1012.8
20260906022332 23 360 0.0 0.0 0.00 0.00 0.00 93 1012.7
20260906021831 23 360 0.0 0.0 0.00 0.00 0.00 93 1012.4
20260906021331 23 360 0.0 0.0 0.00 0.00 0.00 93 1012.6
20260906020831 23 360 0.0 0.0 0.00 0.00 0.00 94 1012.6
20260906020331 23 360 0.0 0.0 0.00 0.00 0.00 93 1012.5
20260906015831 23 360 0.0 0.0 0.00 0.00 0.00 93 1012.6
20260906015331 23 360 0.0 0.0 0.00 0.00 0.00 93 1012.6
20260906014831 23 360 0.0 0.0 0.00 0.00 0.00 93 1012.5
20260906014331 23 97 0.0 0.0 0.00 0.00 0.00 93 1012.5
20260906013831 23 360 0.0 0.0 0.00 0.00 0.00 90 1012.5
20260906013330 23 103 3.2 3.2 0.00 0.00 0.00 93 1012.4
20260906012831 23 92 0.0 3.2 0.00 0.00 0.00 94 1012.3
20260906012331 23 95 3.2 3.2 0.00 0.00 0.00 93 1012.2
20260906011831 23 360 0.0 0.0 0.00 0.00 0.00 93 1012.2
20260906011331 23 360 0.0 0.0 0.00 0.00 0.00 93 1012.3
20260906010831 23 78 3.2 3.2 0.00 0.00 0.00 92 1012.0
20260906010331 24 360 0.0 0.0 0.00 0.00 0.00 91 1012.3
20260906005831 24 360 0.0 0.0 0.00 0.00 0.00 91 1012.2
20260906005331 24 360 0.0 0.0 0.00 0.00 0.00 92 1012.1
20260906004831 25 95 0.0 3.2 0.00 0.00 0.00 91 1012.1
20260906004331 25 68 0.0 3.2 0.00 0.00 0.00 90 1012.1
20260906003831 25 360 0.0 0.0 0.00 0.00 0.00 85 1012.2
20260906003331 25 360 0.0 0.0 0.00 0.00 0.00 82 1012.2
20260906002831 25 272 3.2 4.8 0.00 0.00 0.00 83 1012.2
20260906002331 25 250 4.8 6.4 0.00 0.00 0.00 83 1012.2
20260906001831 25 360 0.0 0.0 0.00 0.00 0.00 87 1012.0
20260906001331 25 360 0.0 0.0 0.00 0.00 0.00 87 1011.9
20260906000831 26 214 0.0 1.6 0.00 0.00 0.00 76 1012.0
20260906000333 26 251 1.6 6.4 0.00 0.00 0.00 78 1012.0
20260905235831 27 262 9.7 17.7 0.00 0.00 0.00 78 1012.3
20260905235331 28 239 1.6 4.8 0.00 0.00 0.00 75 1012.2
20260905234831 30 305 4.8 9.7 0.00 0.00 0.00 70 1012.1
20260905234331 32 93 3.2 11.3 0.00 0.00 0.00 63 1012.1
20260905233831 34 307 3.2 9.7 0.00 0.00 0.00 49 1012.3
20260905233331 35 42 0.0 3.2 0.00 0.00 0.00 46 1011.8
20260905232831 36 44 3.2 4.8 0.00 0.00 0.00 46 1011.8
20260905232330 36 40 1.6 4.8 0.00 0.00 0.00 46 1011.5
20260905231831 37 199 0.0 1.6 0.00 0.00 0.00 44 1011.4
20260905231331 37 230 3.2 3.2 0.00 0.00 0.00 42 1011.3
20260905230830 37 308 1.6 3.2 0.00 0.00 0.00 42 1011.3
20260905230331 37 270 1.6 4.8 0.00 0.00 0.00 42 1011.2
20260905225831 37 344 1.6 3.2 0.00 0.00 0.00 41 1011.3
20260905225331 37 255 3.2 3.2 0.00 0.00 0.00 42 1011.3
20260905224831 37 223 1.6 3.2 0.00 0.00 0.00 42 1011.2
20260905224331 37 221 0.0 3.2 0.00 0.00 0.00 41 1011.3
20260905223831 37 220 1.6 3.2 0.00 0.00 0.00 40 1011.2
20260905223331 37 221 1.6 4.8 0.00 0.00 0.00 40 1011.2
20260905222831 37 324 3.2 4.8 0.00 0.00 0.00 41 1011.3
20260905222331 37 305 3.2 3.2 0.00 0.00 0.00 41 1011.3
20260905221831 37 237 1.6 3.2 0.00 0.00 0.00 41 1011.3
20260905221331 37 318 3.2 4.8 0.00 0.00 0.00 40 1011.2
20260905220831 37 270 3.2 4.8 0.00 0.00 0.00 41 1011.1
20260905220331 37 250 1.6 3.2 0.00 0.00 0.00 40 1011.1
20260905215831 37 327 1.6 3.2 0.00 0.00 0.00 41 1011.2
20260905215331 37 328 3.2 3.2 0.00 0.00 0.00 41 1011.2
20260905214831 37 288 3.2 4.8 0.00 0.00 0.00 41 1011.3
20260905214331 37 349 3.2 4.8 0.00 0.00 0.00 42 1011.3
20260905213831 37 341 3.2 8.0 0.00 0.00 0.00 41 1011.3
20260905213331 37 109 1.6 3.2 0.00 0.00 0.00 43 1011.2
20260905212831 36 231 3.2 3.2 0.00 0.00 0.00 43 1011.3
20260905212331 36 312 1.6 3.2 0.00 0.00 0.00 43 1011.3
20260905211831 36 265 1.6 3.2 0.00 0.00 0.00 43 1011.4
20260905211331 36 324 1.6 3.2 0.00 0.00 0.00 44 1011.5
20260905210831 36 213 0.0 3.2 0.00 0.00 0.00 44 1011.5
20260905210331 36 203 0.0 0.0 0.00 0.00 0.00 45 1011.6
20260905205831 36 304 0.0 3.2 0.00 0.00 0.00 45 1011.6
20260905205331 36 217 0.0 3.2 0.00 0.00 0.00 44 1011.6
20260905204831 37 353 0.0 3.2 0.00 0.00 0.00 43 1011.7
20260905204331 37 351 1.6 4.8 0.00 0.00 0.00 43 1011.7
20260905203831 37 340 3.2 4.8 0.00 0.00 0.00 42 1011.7
20260905203330 37 346 3.2 4.8 0.00 0.00 0.00 41 1011.8
20260905202831 37 340 4.8 6.4 0.00 0.00 0.00 41 1011.8
20260905202331 37 335 3.2 6.4 0.00 0.00 0.00 42 1011.8
20260905201831 37 217 3.2 4.8 0.00 0.00 0.00 42 1011.8
20260905201331 37 332 3.2 6.4 0.00 0.00 0.00 41 1011.9
20260905200831 36 321 3.2 4.8 0.00 0.00 0.00 42 1011.9
20260905200331 36 192 1.6 3.2 0.00 0.00 0.00 43 1012.0
20260905195832 36 290 0.0 1.6 0.00 0.00 0.00 43 1012.1
20260905195331 36 186 0.0 1.6 0.00 0.00 0.00 45 1012.1
20260905194831 36 353 1.6 3.2 0.00 0.00 0.00 44 1012.3
20260905194331 36 261 0.0 3.2 0.00 0.00 0.00 45 1012.3
20260905193831 36 348 3.2 4.8 0.00 0.00 0.00 43 1012.4
20260905193330 36 351 3.2 4.8 0.00 0.00 0.00 43 1012.4
20260905192831 36 353 3.2 4.8 0.00 0.00 0.00 43 1012.5
20260905192331 36 353 3.2 4.8 0.00 0.00 0.00 45 1012.5
20260905191831 36 211 1.6 3.2 0.00 0.00 0.00 43 1012.5
20260905191331 36 360 0.0 0.0 0.00 0.00 0.00 43 1012.6
20260905190831 36 244 1.6 3.2 0.00 0.00 0.00 43 1012.6
20260905190331 36 326 3.2 4.8 0.00 0.00 0.00 43 1012.7
20260905185832 36 342 3.2 3.2 0.00 0.00 0.00 43 1012.7
20260905185331 36 140 0.0 3.2 0.00 0.00 0.00 45 1012.7
20260905184830 36 276 0.0 3.2 0.00 0.00 0.00 44 1012.8
20260905184331 36 219 1.6 1.6 0.00 0.00 0.00 44 1012.9
20260905183831 36 334 3.2 4.8 0.00 0.00 0.00 45 1012.9
20260905183331 36 251 1.6 4.8 0.00 0.00 0.00 44 1012.9
20260905182830 36 179 1.6 3.2 0.00 0.00 0.00 44 1013.0
20260905182331 36 349 3.2 4.8 0.00 0.00 0.00 45 1013.0
20260905181831 36 173 3.2 4.8 0.00 0.00 0.00 45 1013.0
20260905181332 36 238 1.6 3.2 0.00 0.00 0.00 45 1013.0
20260905180831 36 343 3.2 6.4 0.00 0.00 0.00 44 1013.1
20260905180331 36 172 3.2 4.8 0.00 0.00 0.00 44 1013.2
20260905175831 36 338 3.2 4.8 0.00 0.00 0.00 43 1013.2
20260905175331 36 328 1.6 3.2 0.00 0.00 0.00 44 1013.3
20260905174831 36 231 0.0 3.2 0.00 0.00 0.00 45 1013.4
20260905174330 36 246 1.6 3.2 0.00 0.00 0.00 45 1013.4
20260905173831 36 291 1.6 3.2 0.00 0.00 0.00 44 1013.3
20260905173331 36 219 1.6 3.2 0.00 0.00 0.00 45 1013.4
20260905172831 36 337 3.2 4.8 0.00 0.00 0.00 45 1013.4
20260905172331 36 233 3.2 4.8 0.00 0.00 0.00 45 1013.4
20260905171831 36 354 3.2 4.8 0.00 0.00 0.00 46 1013.5
20260905171332 36 335 3.2 3.2 0.00 0.00 0.00 46 1013.7
20260905170831 36 243 0.0 3.2 0.00 0.00 0.00 45 1013.8
20260905170331 36 183 1.6 3.2 0.00 0.00 0.00 45 1013.8
20260905165832 36 333 3.2 6.4 0.00 0.00 0.00 45 1014.1
20260905165331 36 342 3.2 4.8 0.00 0.00 0.00 47 1013.9
20260905164831 36 325 4.8 6.4 0.00 0.00 0.00 47 1013.9
20260905164331 36 298 3.2 4.8 0.00 0.00 0.00 47 1014.1
20260905163831 35 152 3.2 3.2 0.00 0.00 0.00 48 1014.1
20260905163330 35 243 3.2 4.8 0.00 0.00 0.00 48 1014.1
20260905162831 35 325 3.2 6.4 0.00 0.00 0.00 48 1014.1
20260905162331 35 277 1.6 3.2 0.00 0.00 0.00 48 1014.2
20260905161831 35 233 1.6 3.2 0.00 0.00 0.00 48 1014.2
20260905161331 35 234 3.2 4.8 0.00 0.00 0.00 48 1014.2
20260905160831 35 333 4.8 9.7 0.00 0.00 0.00 48 1014.3
20260905160331 35 339 3.2 4.8 0.00 0.00 0.00 49 1014.3
20260905155831 35 188 1.6 3.2 0.00 0.00 0.00 51 1014.3
20260905155331 35 246 1.6 3.2 0.00 0.00 0.00 51 1014.3
20260905154831 35 211 1.6 4.8 0.00 0.00 0.00 53 1014.3
20260905154331 35 223 1.6 3.2 0.00 0.00 0.00 53 1014.3
20260905153831 35 247 3.2 4.8 0.00 0.00 0.00 53 1014.3
20260905153331 35 284 3.2 4.8 0.00 0.00 0.00 52 1014.4
20260905152832 35 192 3.2 4.8 0.00 0.00 0.00 52 1014.4
20260905152331 35 255 0.0 1.6 0.00 0.00 0.00 52 1014.4
20260905151831 35 225 0.0 3.2 0.00 0.00 0.00 52 1014.4
20260905151331 35 193 0.0 3.2 0.00 0.00 0.00 52 1014.4
20260905150831 35 333 3.2 4.8 0.00 0.00 0.00 53 1014.4
20260905150331 34 305 1.6 3.2 0.00 0.00 0.00 55 1014.4
20260905145831 34 187 0.0 3.2 0.00 0.00 0.00 55 1014.4
20260905145331 33 314 0.0 0.0 0.00 0.00 0.00 55 1014.5
20260905144831 33 360 0.0 0.0 0.00 0.00 0.00 56 1014.6
20260905144331 33 360 0.0 0.0 0.00 0.00 0.00 58 1014.6
20260905143831 32 360 0.0 0.0 0.00 0.00 0.00 61 1014.7
20260905143331 32 360 0.0 0.0 0.00 0.00 0.00 63 1014.8
20260905142831 31 360 0.0 0.0 0.00 0.00 0.00 66 1014.8
20260905142331 31 360 0.0 0.0 0.00 0.00 0.00 69 1014.8
20260905141831 30 360 0.0 0.0 0.00 0.00 0.00 74 1014.9
20260905141331 30 360 0.0 0.0 0.00 0.00 0.00 75 1015.0
20260905140831 29 360 0.0 0.0 0.00 0.00 0.00 76 1015.0
20260905140331 29 360 0.0 0.0 0.00 0.00 0.00 77 1015.0
20260905135831 28 360 0.0 0.0 0.00 0.00 0.00 78 1015.0
20260905135331 28 360 0.0 0.0 0.00 0.00 0.00 79 1015.1
20260905134830 28 360 0.0 0.0 0.00 0.00 0.00 79 1015.1
20260905134331 27 360 0.0 0.0 0.00 0.00 0.00 81 1015.1
20260905133831 27 360 0.0 0.0 0.00 0.00 0.00 82 1015.2
20260905133331 27 360 0.0 0.0 0.00 0.00 0.00 83 1015.1
20260905132831 26 360 0.0 0.0 0.00 0.00 0.00 87 1015.2
20260905132331 26 360 0.0 0.0 0.00 0.00 0.00 88 1015.2
20260905131830 26 360 0.0 0.0 0.00 0.00 0.00 88 1015.2